sat.trackr.live / text

‹ back to catalog

BEIDOU-2 IGSO-6 (C13)

NORAD 41434 · 2016-021A

PAYLOAD ACTIVE UNKNOWN

§ Identity

Operator
Country
PRC
Launch date
2016-03-29
Launch site
XICLF
Launch vehicle
Mass (kg)
RCS (m²)
26.19

Purposes: comms, nav

External: N2YO · Heavens-Above · Gunter

§ Orbital elements

Epoch: 2026-09-19T21:05:52.575936Z

Period
1,435.96 min
Inclination
60.3651°
Eccentricity
0.0061975
Mean motion
1.00281482 rev/d
Perigee alt
35,522.6 km
Apogee alt
36,045.2 km
Semi-major
42,162.0 km
B*
0.0000e+0
RAAN
37.1053°
Arg perigee
228.1851°
Mean anomaly
146.4566°
Rev number
3,843

§ Raw data

BEIDOU-2 IGSO-6 (C13)1 41434U 16021A   26262.87908074 -.00000139  00000+0  00000+0 0  99992 41434  60.3651  37.1053 0061975 228.1851 146.4566  1.00281482 38439

JSON: /api/v1/satellites/41434 · /tle

For live sub-satellite position, see the globe view (requires WebGL).

§ Visibility from observer

Set your observer location to see the next 7 days of passes ≥ 10°. The values pass through the URL so the page stays shareable.

No JS? Fill the form by hand. The geolocation button needs JavaScript.